La Paz, Mexico

2:22 AM MST on January 20, 2018 (GMT -0700)
Gen Manuel Marquez De Leon

Weather History for MMLP - June, 2013

Change the Weather History Date:

Saturday, June 22, 2013

  Actual Average Record
Temperature  
Mean Temperature 83 °F -  
Max Temperature 100 °F 96 °F 104 °F (1997)
Min Temperature 66 °F 71 °F 60 °F (2003)
Cooling Degree Days 18    
Growing Degree Days 33 (Base 50)    
Moisture  
Dew Point 55 °F    
Average Humidity 41    
Maximum Humidity 83    
Minimum Humidity 17    
Precipitation  
Precipitation 0.00 in - - ()
Sea Level Pressure  
Sea Level Pressure 29.85 in    
Wind  
Wind Speed 8 mph ()    
Max Wind Speed 16 mph    
Max Gust Speed -    
Visibility 11.0 miles    
Events      
Averages and records for this station are not official NWS values.
T = Trace of Precipitation, MM = Missing Value Source: Averaged Metar Reports

Daily Weather History Graph

Daily Weather History Graph

Search for Another Location

Airport or City:

Trip Planner

Search our weather history database for the weather conditions in past years. The results will help you decide how hot, cold, wet, or windy it might be!

Date:

Astronomy

Jun. 22, 2013 Rise Set
Actual Time 6:34 AM MDT 8:12 PM MDT
Civil Twilight 6:09 AM MDT 8:37 PM MDT
Nautical Twilight 5:38 AM MDT 9:08 PM MDT
Astronomical Twilight 5:06 AM MDT 9:40 PM MDT
Moon 7:36 PM MDT (6/22) 5:44 AM MDT (6/22)
Length of Visible Light 14h 28m
Length of Day
13h 37m
Waxing Gibbous, 99% of the Moon is Illuminated
Jun 22
Waxing Gibbous
Jun 23
Full
Jun 29
Last Quarter
Jul 8
New
Jul 15
First Quarter

Hourly Weather History & Observations

Time (MDT) Temp. Heat Index Dew Point Humidity Pressure Visibility Wind Dir Wind Speed Gust Speed Precip Events Conditions
5:50 AM 70 °F - 63 °F 71% 29.83 in 2 mi South 8.9 mph - -  
6:03 AM 66.2 °F - 59.0 °F 78% 29.92 in 10.0 mi South 12.7 mph - N/A   Clear
6:40 AM 66.2 °F - 59.0 °F 78% 29.84 in 10.0 mi South 12.7 mph - N/A   Clear
7:40 AM 66.2 °F - 60.8 °F 83% 29.85 in 10.0 mi South 6.9 mph - N/A   Clear
8:41 AM 73.4 °F - 55.4 °F 53% 29.94 in 12.0 mi South 10.4 mph - N/A   Clear
8:50 AM 79 °F - 61 °F 44% 29.85 in 12 mi South 6.7 mph - -  
9:43 AM 82.4 °F - 51.8 °F 35% 29.86 in 12.0 mi Calm Calm - N/A   Clear
10:40 AM 89.6 °F - 42.8 °F 20% 29.85 in 12.0 mi Calm Calm - N/A   Clear
11:53 AM 89.6 °F - 42.8 °F 20% 29.94 in 12.0 mi North 9.2 mph - N/A   Clear
12:00 PM 92 °F - 62 °F 27%  in 19 mi South 4.5 mph - -  
12:40 PM 91.4 °F - 41.0 °F 17% 29.84 in 12.0 mi NNW 9.2 mph - N/A   Clear
1:44 PM 89.6 °F - 50.0 °F 26% 29.82 in 12.0 mi North 12.7 mph - N/A   Clear
2:48 PM 91.4 °F - 48.2 °F 23% 29.93 in 10.0 mi North 11.5 mph - N/A   Clear
2:50 PM 94 °F - 69 °F 35% 29.80 in 19 mi NW 8.9 mph - -  
3:43 PM 91.4 °F 89.9 °F 57.2 °F 31% 29.79 in 10.0 mi NW 9.2 mph - N/A   Clear
4:47 PM 95.0 °F - 50.0 °F 22% 29.76 in 10.0 mi SSW 16.1 mph - N/A   Clear
5:50 PM 95 °F - 65 °F 28% 29.76 in 19 mi South 11.2 mph - -  
5:53 PM 87.8 °F - 50.0 °F 27% 29.88 in 10.0 mi South 16.1 mph - N/A   Clear
6:48 PM 86.0 °F - 50.0 °F 29% 29.77 in 10.0 mi SSW 16.1 mph - N/A   Clear
7:44 PM 82.4 °F - 50.0 °F 32% 29.79 in 10.0 mi SSW 11.5 mph - N/A   Clear
8:50 PM 82 °F - 63 °F 43% 29.83 in 2 mi South 8.9 mph - -  
8:52 PM 77.0 °F - 57.2 °F 50% 29.96 in 10.0 mi SSW 6.9 mph - N/A   Clear
9:44 PM 75.2 °F - 57.2 °F 53% 29.87 in 10.0 mi South 11.5 mph - N/A   Clear
10:50 PM 73.4 °F - 57.2 °F 57% 29.87 in 10.0 mi South 9.2 mph - N/A   Clear